GEFSMW_500_meanwind_096.txt.gz
Wind_Speed
52 51 51 50 50 49 47 46 46 46 46 46 45 44 44 44 44 44 44 43 42 41 40 39 39 38 37 37 36 36 36 36 36 36 36 35 35 36 37 38 39 40 40
54 53 51 50 49 49 48 48 47 46 47 47 47 46 46 47 47 46 46 45 45 45 44 42 41 41 40 40 39 39 39 38 39 39 39 37 37 37 39 40 41 41 42
54 53 52 51 50 50 50 49 49 48 49 49 49 48 48 49 49 48 48 47 47 46 45 44 44 44 43 42 42 41 41 41 41 41 41 41 40 40 39 40 41 42 43
53 54 53 53 52 51 51 51 51 50 50 50 50 50 50 50 50 49 49 49 49 48 47 47 47 46 46 45 44 44 43 43 43 43 43 43 43 43 42 41 41 42 43
50 52 53 53 53 53 53 52 52 52 51 50 51 50 51 51 51 51 50 50 50 51 50 49 48 48 47 47 47 46 46 45 45 45 44 44 44 44 45 44 44 44 44
49 49 50 52 52 53 53 53 52 52 52 52 51 51 52 52 52 53 52 52 52 51 51 52 51 50 50 49 48 48 48 47 47 46 46 46 46 46 46 46 46 46 45
47 47 48 49 50 51 52 52 52 51 52 52 52 53 52 52 52 53 53 54 54 52 52 52 52 51 51 50 50 50 49 49 49 48 48 48 48 47 47 47 46 46 45
44 45 46 47 48 49 50 50 51 51 51 52 52 52 52 52 53 53 53 53 53 53 53 52 52 52 52 52 52 52 52 51 51 50 49 49 49 49 48 48 47 46 46
41 42 44 45 46 47 48 48 49 50 49 49 50 50 51 52 53 53 53 52 52 53 53 53 53 53 52 52 52 52 51 51 52 51 50 49 48 47 47 47 47 47 46
38 39 41 42 44 45 46 47 47 48 49 49 49 50 51 51 52 52 52 52 51 51 52 52 53 52 52 52 52 52 52 52 51 50 49 49 48 47 47 47 46 46 46
36 37 38 39 40 42 43 44 45 46 47 48 48 48 49 50 50 51 51 51 51 51 51 52 52 52 52 52 52 52 51 50 50 49 48 47 47 47 47 47 47 46 45
34 35 36 37 37 39 40 42 43 44 44 45 46 46 47 47 49 49 50 51 51 51 51 51 52 51 51 51 51 51 50 49 48 48 48 48 48 47 46 46 46 45 44
33 34 34 35 35 36 38 39 40 41 42 44 45 45 45 46 47 47 48 49 50 50 50 50 50 51 51 51 50 49 48 48 48 48 48 47 47 46 45 45 44 43 42
32 33 34 34 35 36 37 38 38 39 40 42 43 43 44 44 45 45 45 46 46 47 48 48 48 48 48 48 48 47 47 47 47 46 45 45 44 44 43 43 42 41 40
31 32 33 34 35 36 37 38 38 39 39 40 41 42 42 43 43 43 43 43 44 44 45 45 45 45 45 45 45 45 45 45 44 44 43 43 42 42 41 40 39 39 38
30 31 31 32 33 34 35 36 37 38 38 39 39 40 40 41 42 42 42 42 42 42 43 43 43 43 43 43 43 43 43 43 43 42 42 41 40 40 39 38 38 38 38
28 30 31 31 32 32 33 34 35 36 37 37 38 38 39 39 39 40 40 40 41 41 41 41 41 41 41 41 42 42 42 42 41 41 40 39 39 38 38 37 37 37 37
27 28 29 30 30 31 32 33 33 34 35 36 37 37 38 38 39 39 39 39 39 39 39 39 39 39 40 40 40 40 40 40 39 38 38 37 37 37 36 36 36 36 37
26 27 28 29 29 30 31 31 32 32 34 35 35 36 36 36 37 37 37 37 37 37 38 38 37 37 38 38 38 38 37 37 36 36 36 36 36 35 35 35 35 36 37
26 26 27 28 29 29 30 30 31 31 32 32 33 33 34 34 34 35 35 35 35 35 36 36 35 35 35 35 35 35 35 34 35 35 35 34 34 34 34 34 35 36 36
24 25 26 27 27 28 29 29 29 30 30 30 30 31 32 32 32 32 32 32 33 33 33 33 32 33 32 33 33 33 33 33 33 33 33 33 33 33 34 35 35 35 36
22 23 24 25 26 26 27 27 27 27 28 28 29 29 29 29 29 29 30 30 30 30 30 30 31 31 31 31 32 32 32 32 32 32 32 32 33 33 34 34 34 35 35
21 22 22 24 25 25 26 26 26 26 26 26 27 27 27 28 28 28 28 28 29 29 29 29 29 30 30 30 31 31 31 31 31 31 32 32 33 33 34 34 34 35 35
21 21 21 22 23 24 25 25 26 26 26 26 26 26 26 26 26 27 27 27 28 28 29 29 29 29 30 30 30 30 31 31 31 32 32 32 33 33 33 34 35 35 36
21 21 21 22 22 23 24 24 25 25 26 26 26 26 26 26 26 26 27 27 27 28 28 28 29 29 29 29 29 30 30 31 31 31 32 32 32 33 34 34 35 36 37
22 22 23 23 23 23 24 24 24 25 25 25 25 26 26 26 26 26 26 27 27 28 28 28 29 28 28 28 29 29 29 30 30 31 31 32 33 33 34 35 36 37 38

GEFSMW_500_meanwind_102.txt.gz
Wind_Speed
53 52 53 53 52 50 49 48 47 45 44 43 42 41 40 39 39 38 37 37 37 37 37 36 37 37 37 37 38 37 37 37 37 37 37 37 38 38 38 39 39 40 40
53 53 52 52 52 51 50 49 48 46 45 45 45 44 43 41 41 40 40 40 40 39 40 40 40 40 40 40 41 41 40 40 41 41 41 40 40 40 41 41 41 42 42
52 52 53 52 52 51 50 49 48 48 47 46 45 45 45 44 43 42 42 41 42 42 43 43 43 43 43 43 44 44 44 43 43 44 44 44 43 43 42 42 42 43 43
52 53 53 53 53 52 51 50 49 49 48 47 46 46 46 45 44 44 44 44 44 44 45 45 46 47 47 47 47 47 46 46 46 46 46 47 47 46 45 44 44 45 45
52 52 52 53 53 53 53 51 51 50 49 48 47 47 46 46 46 46 46 46 46 46 46 47 48 49 50 49 49 49 49 49 48 48 48 49 49 49 50 48 47 47 46
51 51 52 52 51 52 52 53 52 51 50 50 49 49 48 48 48 48 48 48 48 48 49 49 50 51 51 51 50 50 50 50 51 51 51 51 50 50 50 50 49 48 48
51 51 51 51 51 51 52 52 53 53 52 52 51 51 51 51 50 50 51 50 50 51 51 52 52 52 52 52 52 52 52 52 52 52 52 52 51 51 51 51 50 50 49
48 48 49 49 49 50 51 52 53 53 53 53 52 52 53 53 53 53 53 53 53 53 53 54 53 53 53 53 53 54 54 54 53 53 52 52 52 52 52 52 51 50 49
45 46 46 47 48 48 49 50 51 52 53 53 54 53 54 53 52 53 54 54 54 54 54 54 54 54 53 53 53 53 53 53 52 53 53 52 52 51 51 50 50 49 48
42 43 44 44 45 46 47 49 50 51 51 51 52 53 53 52 52 52 52 53 53 52 53 52 52 52 53 53 52 52 52 51 51 51 51 51 51 51 49 49 48 48 47
39 41 42 42 43 44 45 46 47 48 50 50 51 52 53 53 52 51 52 52 52 51 51 51 51 51 50 51 51 52 51 51 50 50 50 51 50 49 49 48 48 48 47
36 37 39 40 41 41 42 43 44 45 46 47 48 49 49 50 50 50 50 49 50 50 49 49 49 49 49 49 50 50 50 50 50 50 50 49 49 48 48 48 47 47 47
34 35 36 36 37 39 40 41 41 42 42 43 44 45 46 46 47 47 48 48 48 48 48 48 48 48 48 48 48 48 48 48 48 48 48 48 47 47 46 46 46 46 46
31 32 33 34 35 36 37 38 39 40 41 41 42 43 44 44 45 46 46 46 47 47 46 47 46 47 47 46 46 45 45 45 46 46 46 46 46 46 46 45 45 44 44
29 30 31 32 33 34 35 36 37 37 38 39 40 41 42 43 43 44 45 45 45 45 45 45 45 45 45 45 44 44 44 44 44 44 45 44 44 44 44 44 43 43 42
29 30 31 31 33 34 34 35 36 37 37 38 38 39 40 41 42 43 43 43 43 43 44 44 44 44 44 44 44 44 44 44 43 43 43 43 43 43 42 42 42 41 40
29 30 31 31 32 33 34 35 35 36 36 37 37 37 38 39 40 40 41 42 42 42 43 43 43 43 43 43 43 42 42 42 42 42 42 41 41 41 41 40 40 40 39
28 29 30 31 32 32 33 34 34 35 35 36 36 37 37 38 38 39 39 40 41 41 41 42 42 42 42 42 41 41 41 40 40 40 40 40 39 39 39 39 39 38 38
27 28 29 30 31 32 33 33 34 34 35 36 36 36 37 37 38 38 39 40 40 41 41 41 41 41 41 40 40 39 39 38 38 38 38 38 37 37 37 36 37 37 36
26 27 28 29 30 30 31 32 33 34 34 35 35 36 36 37 37 38 38 38 39 39 40 39 39 39 39 38 38 37 37 37 36 36 36 35 35 35 34 35 35 35 35
25 26 27 28 29 30 31 31 32 33 33 34 34 35 35 36 36 36 36 36 36 37 37 37 37 37 37 36 36 35 35 34 34 34 33 33 33 34 34 34 34 34 34
25 26 26 27 28 29 29 30 31 31 32 33 33 34 34 34 34 35 35 35 35 35 34 34 34 34 34 34 33 33 33 33 32 32 33 33 33 33 33 33 34 34 34
24 24 25 26 26 27 28 29 29 30 30 31 31 32 32 33 33 33 34 33 33 33 32 32 32 32 32 32 32 31 31 31 31 32 32 32 32 32 33 33 33 33 33
25 25 25 25 25 26 26 27 28 28 29 29 29 30 30 31 31 31 31 31 31 31 31 31 31 31 31 31 31 30 30 31 31 31 31 31 31 31 32 32 33 33 33
25 25 26 26 26 26 26 27 27 27 28 28 28 29 30 30 30 30 30 30 30 30 30 30 30 29 29 30 30 30 30 31 31 31 31 31 31 32 32 32 32 33 34
25 26 26 26 27 27 27 27 27 27 28 28 29 29 29 30 30 30 29 29 29 29 30 29 29 29 29 30 30 29 30 30 30 30 30 31 31 32 32 32 33 33 34

GEFSMW_500_meanwind_108.txt.gz
Wind_Speed
48 48 47 47 47 47 46 44 45 44 43 42 41 40 39 38 37 36 35 35 34 33 33 34 34 33 33 32 32 33 34 34 34 35 35 36 37 37 38 38 39 39 40
47 47 48 49 48 46 47 46 45 46 47 46 44 42 41 40 38 38 37 37 36 36 36 36 35 35 35 35 36 36 37 37 37 37 38 38 39 39 40 40 41 42 42
46 46 47 47 48 49 48 47 46 46 46 46 45 44 43 42 41 40 40 39 37 37 38 38 38 38 38 37 37 38 39 40 41 41 42 42 42 42 42 43 43 44 45
47 46 47 47 48 48 49 49 48 48 47 47 47 46 45 44 43 42 42 40 40 39 39 39 39 39 39 39 40 40 40 41 42 43 44 45 46 46 46 45 45 46 46
47 48 48 48 48 49 49 50 50 49 48 48 47 46 45 44 43 43 42 41 41 41 41 41 41 41 41 41 42 42 43 44 44 45 47 48 48 48 48 47 47 47 47
45 47 48 49 48 49 50 50 51 50 49 49 48 47 46 45 44 44 44 43 43 43 43 44 43 43 43 43 44 45 46 47 47 48 48 49 48 48 49 49 48 48 48
46 47 48 49 50 49 50 50 50 51 51 50 49 49 48 48 47 46 45 45 45 45 45 46 46 46 46 47 47 47 48 48 49 49 49 50 50 50 50 50 50 50 50
44 46 48 49 50 50 50 51 51 50 51 50 50 49 50 49 49 49 48 48 48 48 48 48 48 49 49 49 49 49 49 49 49 50 50 51 51 50 50 50 51 51 51
41 44 47 48 50 51 51 51 52 52 52 52 52 51 51 51 51 51 51 50 49 49 49 50 50 50 50 51 50 50 50 51 50 50 51 51 51 52 51 51 51 52 52
41 43 46 47 48 49 51 51 51 51 51 52 53 53 53 53 52 51 52 52 52 51 51 52 52 52 51 50 51 51 52 51 51 51 51 51 51 51 51 51 51 51 50
39 42 45 46 47 48 49 51 51 51 51 51 51 52 53 53 52 52 52 52 52 52 52 52 51 51 50 50 50 50 50 50 50 50 50 50 50 50 50 50 50 49 49
36 39 42 44 46 47 48 48 50 51 51 50 50 50 50 51 51 51 52 52 51 51 51 50 50 50 50 50 49 50 49 49 50 50 50 49 49 49 49 49 48 48 48
33 36 38 41 43 45 46 47 48 48 49 49 49 49 49 49 50 50 50 50 49 50 50 50 50 50 50 50 49 49 49 48 48 48 48 48 48 48 47 47 47 47 47
33 35 36 38 39 41 43 44 44 45 46 47 46 47 47 47 47 48 48 48 48 48 49 49 48 48 48 48 47 47 47 47 47 47 47 47 46 46 46 46 46 46 46
30 32 35 36 37 38 40 42 42 42 43 43 44 44 44 45 45 45 46 46 46 46 46 46 46 46 46 46 46 45 45 45 45 46 46 46 46 46 45 45 45 45 45
30 32 33 35 36 36 38 39 40 41 41 42 42 42 42 43 43 43 44 44 44 44 44 44 44 44 44 44 44 44 44 45 45 45 45 45 45 44 44 44 43 43 43
28 29 31 33 34 35 37 38 39 40 40 40 41 41 42 42 42 43 43 43 43 43 43 43 43 43 43 43 43 43 44 44 45 45 45 44 43 43 42 42 42 42 41
27 27 29 31 32 34 36 37 39 40 40 39 39 40 41 42 42 42 42 42 42 42 42 42 42 43 43 44 44 45 45 45 45 44 43 42 42 41 41 40 40 40 39
26 27 29 32 32 33 35 36 37 39 40 40 40 40 41 41 41 41 41 41 42 42 42 42 42 43 43 44 44 44 44 44 44 43 42 41 41 40 40 39 39 38 38
26 27 29 30 32 32 34 35 35 37 38 39 39 39 40 40 40 40 40 40 40 41 41 41 42 42 42 41 41 41 41 41 41 41 40 40 39 39 39 38 38 37 37
26 27 28 29 30 31 32 33 34 35 36 37 38 38 38 38 39 38 38 39 39 40 40 40 41 41 41 40 40 39 39 39 39 39 39 38 38 37 36 36 36 36 36
26 27 28 29 30 30 31 32 33 33 34 35 36 37 37 37 38 38 38 39 39 39 39 39 40 40 39 39 39 39 38 37 37 37 37 36 36 35 35 35 35 35 35
26 27 28 28 29 29 30 30 31 33 33 34 35 35 36 36 37 37 38 38 38 38 38 39 39 38 38 38 38 37 36 36 36 35 35 35 35 35 35 35 34 34 34
27 27 27 28 29 29 29 30 30 31 32 33 34 34 35 35 36 36 36 36 36 36 36 36 37 37 37 37 36 36 35 35 35 35 35 34 34 34 34 34 34 33 33
28 28 27 28 29 29 29 29 30 31 31 32 32 33 33 33 34 34 35 36 36 35 35 36 36 36 36 36 35 35 35 34 34 33 33 33 33 33 33 33 33 33 33
27 28 28 28 29 29 29 29 30 30 31 31 32 32 32 32 33 33 34 34 34 34 34 34 34 34 34 34 34 33 33 33 33 33 33 33 33 33 33 32 32 33 33

GEFSMW_500_meanwind_114.txt.gz
Wind_Speed
51 50 48 49 47 47 46 46 46 45 43 42 42 42 41 40 39 39 38 37 36 36 35 35 35 35 34 34 34 33 33 33 34 33 33 33 33 34 35 35 36 37 37
48 49 48 48 47 46 45 44 45 45 45 44 45 44 43 43 42 42 41 40 39 39 38 38 38 38 38 37 36 36 35 35 35 35 35 35 35 35 36 36 37 39 39
47 48 48 47 46 45 45 44 44 44 45 44 45 46 46 45 45 45 44 42 42 40 40 40 39 39 39 38 38 37 36 35 35 36 36 36 35 36 37 38 39 40 41
45 46 47 47 46 46 45 45 45 45 46 46 45 46 46 46 45 45 45 44 43 42 41 40 40 39 38 38 38 36 36 37 37 38 38 39 39 39 39 40 41 42 43
43 43 45 45 45 45 45 45 45 45 46 47 46 47 47 46 46 46 46 45 45 44 42 40 39 40 39 38 38 39 39 38 38 39 40 41 41 42 43 42 42 43 44
41 42 43 43 43 44 44 44 45 43 44 45 47 47 48 48 47 46 45 44 43 43 42 42 41 41 40 39 39 40 39 39 39 40 41 42 43 44 45 45 44 44 44
42 45 45 44 44 43 44 44 45 44 42 43 44 45 45 46 47 47 45 44 44 44 44 44 42 41 41 41 42 41 40 40 41 41 42 42 44 44 45 45 45 46 46
40 44 45 46 46 46 46 46 46 47 46 45 44 44 45 45 45 46 44 45 46 44 42 43 43 43 43 43 42 41 41 41 42 43 43 44 44 45 46 47 48 49 48
38 42 44 46 46 47 46 45 46 47 46 47 46 46 47 47 47 46 46 46 45 44 45 44 45 44 43 43 43 43 42 43 44 44 44 45 46 47 48 48 49 50 49
37 38 41 43 45 46 46 46 46 46 46 46 47 47 47 46 46 47 47 47 45 44 44 45 45 45 45 46 45 45 45 45 44 46 47 47 47 48 48 49 49 50 50
34 37 39 41 43 44 45 45 45 45 46 47 47 47 47 46 47 48 48 47 47 47 47 47 46 46 46 46 47 47 47 47 47 48 48 48 48 49 49 49 50 50 50
29 33 36 38 41 42 43 44 45 46 46 46 47 48 47 47 48 49 48 48 48 48 48 48 47 47 47 48 48 48 48 48 48 48 48 48 49 49 49 49 49 49 49
28 30 32 35 38 41 43 45 47 48 48 47 47 48 47 47 48 49 50 50 50 49 50 49 48 48 48 48 48 47 47 47 47 48 48 48 48 49 49 49 48 48 48
28 30 31 33 36 39 41 44 45 47 48 48 49 49 49 49 49 49 50 51 50 50 51 49 48 48 48 48 48 47 46 46 47 48 48 47 47 47 47 47 48 47 47
28 30 31 34 36 38 40 43 44 45 47 48 49 49 49 50 50 49 49 50 50 50 49 48 48 47 47 47 47 47 46 46 47 47 46 46 46 46 46 47 47 47 46
27 30 31 33 35 38 40 42 43 44 45 47 47 47 48 48 48 48 48 49 49 49 49 48 48 47 46 47 47 47 47 46 46 46 46 45 46 46 46 46 46 46 46
28 30 32 34 35 37 39 40 42 43 44 45 46 46 46 47 48 48 48 48 48 47 47 47 47 47 47 46 46 46 46 46 45 45 45 45 45 45 45 46 46 46 46
29 31 33 34 35 36 37 39 39 41 42 43 44 45 45 46 47 47 47 47 47 46 46 46 45 45 45 45 44 45 44 44 44 44 44 44 45 45 45 45 45 44 44
30 32 34 34 35 35 36 37 38 39 41 42 43 44 44 44 44 45 45 45 45 46 45 45 44 44 44 44 44 43 43 43 43 43 43 44 44 43 43 43 43 42 42
31 32 33 34 34 35 35 36 36 38 39 40 41 41 42 41 41 42 43 43 43 43 43 43 43 43 43 42 42 42 42 42 42 42 42 42 42 42 42 41 41 40 40
30 31 31 32 33 34 34 34 35 36 37 37 38 39 39 39 39 40 40 41 41 41 42 42 42 41 41 41 41 41 41 41 41 41 42 41 41 41 40 40 39 39 38
29 29 30 32 32 32 33 33 32 33 34 35 36 37 37 37 38 38 38 39 40 40 41 40 40 40 40 40 40 40 40 40 40 40 41 41 40 40 40 39 38 37 37
29 30 31 31 32 32 32 32 32 31 32 33 34 34 35 35 36 37 37 37 37 38 38 39 39 39 39 39 40 40 40 40 39 39 39 39 39 39 38 37 37 36 35
31 31 31 32 32 32 31 32 32 32 32 32 33 33 34 35 35 36 36 37 37 37 37 37 38 39 39 39 39 39 39 39 39 39 39 38 38 37 37 36 36 36 35
32 31 31 31 30 31 31 31 31 31 32 32 32 33 34 33 34 35 36 36 36 36 37 37 38 38 38 38 38 38 38 38 37 37 37 37 36 36 36 35 35 35 35
33 32 31 31 30 30 31 31 31 31 31 32 32 33 33 34 34 35 35 36 36 36 36 37 37 37 38 37 37 37 37 37 37 36 36 36 36 35 35 35 35 34 34